Temperature
21 21 21 21 23 20 17 14 15 14 13 11 10 11 12 11 12 10 5 5 6 7 7 7 7 7 7 7 7 7 7 7 7 7 7 7 7 7 7 7 7 7 7 7 8 9 10 11 11
21 21 21 21 23 21 15 14 14 14 11 10 10 10 10 8 7 6 5 6 7 7 7 7 7 7 7 7 7 6 6 5 5 5 5 5 5 5 5 6 6 6 6 6 6 7 8 9 10
21 21 20 20 20 19 15 14 13 11 10 10 9 8 9 7 6 5 5 6 6 7 7 7 7 7 6 5 5 5 4 4 4 4 4 4 4 4 4 4 5 5 5 5 5 5 6 6 7
21 20 19 19 16 14 15 14 12 11 10 9 9 8 6 4 4 4 5 6 6 7 7 7 7 7 6 5 5 4 4 4 4 4 4 4 4 4 4 4 4 4 4 3 4 5 5 5 6
22 20 20 17 15 13 14 13 12 12 11 10 9 9 6 4 4 5 6 6 7 7 7 7 7 6 6 5 5 4 4 4 4 4 4 4 4 4 4 4 4 3 3 3 3 3 3 4 4
20 22 21 18 15 13 13 11 12 12 10 9 9 9 6 4 4 5 6 6 6 7 6 6 6 6 5 5 5 4 4 4 4 4 4 4 4 4 4 4 3 3 3 2 3 3 3 3 4
20 20 19 18 16 14 13 11 12 12 11 9 9 9 6 4 4 5 5 6 6 6 6 6 5 5 5 5 4 4 4 4 4 4 4 4 4 4 4 3 3 2 2 2 2 2 2 2 3
18 20 18 18 17 15 12 10 10 11 10 7 8 9 7 5 4 4 5 5 5 5 6 5 5 4 4 4 4 4 4 4 4 4 4 4 3 3 3 3 2 2 1 1 2 1 2 2 3
18 21 19 17 17 14 11 10 8 8 8 7 7 8 7 5 4 4 4 4 4 4 5 5 4 4 4 3 4 4 4 3 3 3 3 3 3 2 2 2 2 1 1 1 1 0 1 2 2
19 20 16 15 15 14 11 11 9 8 9 7 6 5 5 4 4 4 3 3 3 4 4 4 3 3 3 3 3 3 3 3 3 2 2 2 1 1 1 1 1 1 1 0 0 0 0 1 1
15 15 13 11 11 12 10 10 9 10 10 9 8 5 5 4 4 4 3 3 3 3 3 3 3 3 3 2 2 2 2 2 1 1 1 0 0 -0 -0 -1 -1 -1 -1 -1 -1 -1 -2 -2 -1
14 12 12 11 10 10 10 9 9 10 11 9 8 6 5 4 4 4 3 3 3 3 3 3 2 3 2 2 2 1 1 0 -0 -1 -1 -1 -2 -2 -2 -3 -4 -4 -4 -4 -4 -4 -4 -4 -3
14 11 10 9 9 9 9 9 10 9 7 7 7 6 5 5 4 3 3 3 3 3 3 2 3 2 2 2 1 1 0 -1 -1 -2 -2 -3 -4 -4 -5 -5 -6 -6 -6 -6 -6 -6 -5 -5 -5
12 11 11 10 10 9 10 9 9 9 7 7 6 5 5 4 4 3 3 3 3 3 2 2 2 2 1 1 1 -0 -1 -1 -2 -3 -4 -4 -5 -6 -7 -7 -7 -7 -7 -8 -8 -7 -7 -7 -6
12 13 12 11 11 10 10 11 10 9 7 7 6 6 5 4 4 3 3 3 3 2 2 2 2 1 1 1 0 -1 -1 -2 -3 -4 -5 -6 -6 -7 -8 -8 -8 -8 -8 -8 -8 -8 -8 -8 -7
15 16 17 13 11 9 11 15 13 8 7 7 7 6 5 4 3 3 3 3 2 2 2 2 1 1 0 0 -0 -1 -2 -2 -3 -4 -5 -6 -7 -7 -8 -8 -9 -9 -9 -9 -9 -9 -9 -9 -9
18 19 19 15 12 11 11 15 12 8 7 8 7 7 5 5 3 3 3 2 2 2 2 1 1 0 0 -0 -1 -1 -2 -3 -4 -4 -5 -6 -7 -8 -9 -9 -10 -10 -10 -10 -10 -10 -10 -10 -10
19 19 18 18 14 12 12 14 13 8 8 8 8 7 6 5 4 3 2 2 2 2 1 1 -0 -0 -0 -1 -1 -2 -3 -3 -4 -5 -6 -6 -8 -9 -10 -11 -11 -11 -11 -11 -11 -11 -11 -11 -10
18 18 18 17 13 12 13 14 14 10 8 8 9 8 7 6 5 2 2 1 1 1 1 0 -1 -1 -1 -2 -2 -3 -3 -4 -5 -6 -7 -8 -9 -9 -10 -11 -11 -12 -12 -12 -12 -12 -11 -11 -11
17 18 18 16 12 12 13 14 14 13 9 9 9 8 7 6 4 2 2 1 1 1 1 -0 -1 -2 -2 -2 -3 -3 -4 -5 -7 -8 -8 -9 -9 -10 -11 -12 -12 -12 -12 -12 -12 -12 -12 -12 -11
17 17 17 16 13 12 12 17 14 11 8 8 8 8 8 6 5 3 2 1 1 1 0 -0 -1 -2 -2 -3 -3 -4 -5 -6 -7 -8 -8 -9 -10 -11 -12 -12 -12 -12 -12 -12 -12 -12 -13 -12 -12
18 15 14 14 15 16 14 18 18 13 11 9 8 7 7 6 5 3 2 1 1 1 0 -1 -1 -2 -3 -3 -4 -5 -6 -7 -7 -8 -9 -10 -11 -11 -12 -12 -12 -12 -12 -12 -13 -13 -13 -13 -13
15 13 13 13 14 15 14 17 20 13 15 14 11 9 7 6 4 3 2 1 1 1 -0 -1 -2 -2 -3 -3 -4 -5 -6 -7 -7 -9 -10 -11 -11 -11 -12 -12 -12 -12 -12 -12 -13 -13 -13 -13 -13
13 13 13 13 15 18 16 16 19 18 17 15 12 9 7 5 3 2 1 2 1 1 -0 -1 -2 -2 -3 -4 -4 -5 -6 -7 -8 -9 -11 -11 -11 -11 -11 -12 -12 -12 -12 -12 -12 -13 -13 -13 -13
15 17 19 19 19 19 14 15 18 17 15 13 12 9 7 4 2 1 1 2 1 0 -1 -1 -2 -2 -3 -4 -5 -6 -7 -7 -9 -10 -11 -12 -12 -11 -11 -11 -11 -11 -12 -12 -12 -12 -12 -13 -13
15 17 18 18 18 18 14 16 19 15 11 9 8 7 5 3 2 1 2 1 1 -0 -1 -1 -2 -3 -3 -4 -5 -6 -7 -8 -9 -10 -11 -12 -12 -12 -11 -11 -11 -11 -11 -11 -12 -12 -12 -12 -12
16 16 14 16 16 15 18 17 18 13 11 9 8 6 5 3 2 1 1 1 1 -0 -1 -1 -2 -3 -4 -4 -5 -6 -7 -8 -9 -10 -11 -12 -12 -12 -11 -11 -11 -11 -11 -11 -11 -11 -11 -11 -11
13 14 15 16 16 17 18 18 18 19 18 14 10 8 5 3 1 1 1 1 1 -0 -1 -1 -2 -3 -4 -5 -6 -6 -7 -8 -9 -10 -11 -11 -12 -12 -12 -11 -11 -11 -11 -11 -11 -11 -11 -11 -11
13 13 14 15 15 16 17 19 18 18 17 15 13 10 6 4 2 2 2 1 0 -0 -1 -2 -3 -4 -4 -5 -6 -6 -7 -8 -9 -10 -11 -11 -12 -12 -12 -12 -11 -11 -11 -11 -11 -11 -11 -11 -11
14 15 15 16 16 14 15 17 18 16 14 12 11 9 6 4 2 2 2 1 0 -0 -1 -2 -3 -4 -4 -5 -5 -6 -7 -8 -9 -10 -11 -11 -12 -12 -12 -12 -12 -11 -11 -11 -11 -11 -11 -11 -11
Wind_Speed
5 4 1 1 4 8 7 6 6 7 5 6 7 7 8 8 5 6 4 10 12 14 16 18 22 22 22 24 24 25 25 25 26 27 28 28 29 29 28 28 28 27 27 27 27 28 28 27 27
5 2 1 2 3 7 6 6 9 7 10 9 7 6 7 7 7 6 4 9 11 14 15 18 22 21 22 23 24 24 25 25 25 26 27 27 28 28 28 29 29 28 27 27 27 27 27 27 27
5 5 5 5 6 6 9 10 12 12 9 5 5 5 5 6 5 4 5 8 10 13 15 18 22 21 21 22 23 23 23 23 24 25 26 26 27 27 27 27 27 27 27 27 27 27 27 27 27
2 5 6 8 12 6 9 14 13 12 7 4 6 8 5 4 3 5 6 8 11 14 16 18 21 21 21 21 22 22 23 23 24 25 26 26 27 27 27 27 27 27 27 26 27 27 27 26 26
3 5 7 8 9 7 9 12 12 8 8 7 7 7 7 6 7 7 7 9 11 13 15 17 20 20 20 21 22 22 22 23 24 25 26 26 27 27 27 27 27 27 27 27 26 26 26 26 26
4 4 6 8 8 8 8 8 8 7 7 7 8 9 7 8 7 6 6 7 9 12 14 15 17 18 18 19 21 20 21 22 23 24 25 26 26 26 26 26 27 27 27 27 27 27 26 26 26
4 5 7 11 11 8 7 7 8 7 8 8 8 8 9 10 8 6 5 6 8 10 13 14 15 15 14 15 19 19 19 21 21 22 24 25 24 25 25 25 26 27 27 27 27 27 27 27 26
4 7 8 8 10 8 9 7 5 6 7 7 6 6 8 13 10 6 4 5 7 9 11 13 14 14 14 12 15 16 16 18 19 19 22 23 22 22 22 23 25 25 25 26 26 26 27 27 25
1 5 6 7 8 8 11 7 5 4 8 5 3 2 8 16 11 6 2 3 6 8 9 11 13 14 13 12 12 13 14 17 18 19 22 21 20 20 21 23 24 25 24 24 24 25 25 25 22
5 5 5 3 4 10 13 8 10 8 9 7 7 8 13 14 10 6 2 4 6 9 9 10 12 12 13 11 11 12 14 15 17 18 20 19 19 18 20 22 22 23 24 23 22 24 22 19 17
7 8 7 5 7 12 12 10 9 10 8 9 14 17 16 13 9 6 3 3 5 7 8 9 10 11 12 11 11 11 12 13 15 16 18 18 17 16 17 17 18 19 20 18 20 19 17 18 17
8 8 7 8 8 9 10 10 8 11 3 8 15 18 16 13 10 7 4 2 4 6 8 9 9 11 12 12 11 12 12 12 13 14 16 16 15 15 16 16 17 17 16 18 18 17 19 20 19
8 7 7 9 9 9 9 9 7 8 4 11 16 16 15 13 10 7 4 2 3 6 7 8 9 12 12 12 11 12 12 12 14 13 14 16 15 15 16 16 16 17 16 17 18 18 19 19 18
10 12 11 8 8 7 7 6 6 9 11 15 16 16 14 13 11 9 6 2 3 4 6 7 9 11 12 12 12 12 12 13 13 12 14 15 15 16 16 17 17 17 17 17 18 19 19 17 17
10 10 7 5 5 5 5 7 9 11 15 17 17 15 14 13 12 9 6 3 1 3 4 7 9 11 12 12 12 11 11 13 12 12 13 15 16 16 17 16 16 17 18 20 19 19 17 16 16
5 5 4 6 5 5 6 7 8 15 18 18 17 15 14 14 13 9 7 4 2 1 4 6 8 10 12 12 12 11 12 12 11 12 13 15 17 17 18 16 17 18 19 18 17 15 15 15 15
4 3 2 4 7 6 8 7 6 14 18 18 17 16 15 14 13 11 9 6 3 1 3 5 8 10 12 12 11 11 11 11 11 12 13 16 17 18 18 17 17 19 18 17 16 14 15 16 17
1 2 3 3 6 8 10 13 7 13 18 18 17 17 16 16 15 12 10 7 4 1 3 5 7 10 11 10 10 10 11 11 11 12 14 17 17 18 18 16 18 18 16 14 15 17 17 16 16
1 3 5 2 3 6 13 16 13 13 17 18 17 17 17 16 13 12 11 8 5 2 2 5 7 9 9 8 8 9 10 9 10 11 15 16 17 18 18 16 17 17 14 15 17 17 18 16 15
2 4 5 2 1 5 12 17 13 12 17 18 18 18 18 16 14 14 12 9 6 2 2 5 7 8 9 8 9 9 10 9 10 11 13 15 17 17 16 17 16 17 15 17 17 17 15 15 14
3 4 5 6 2 4 9 7 3 3 8 14 16 17 17 17 16 15 14 10 6 2 2 4 6 7 8 10 9 9 8 8 8 10 11 15 17 17 17 18 18 18 16 15 18 17 18 16 15
2 1 4 5 6 3 4 5 1 2 5 10 15 17 17 16 15 15 13 10 6 3 0 3 5 6 8 9 9 11 10 10 12 10 11 16 16 16 17 18 19 19 17 17 17 17 16 17 15
2 1 3 3 3 4 1 5 3 1 3 5 10 14 15 15 15 15 13 10 6 3 1 2 4 5 7 9 10 11 10 9 10 11 13 13 15 15 17 18 19 19 18 18 19 19 17 14 15
1 2 3 3 3 3 1 4 5 2 2 2 2 7 12 13 13 14 12 9 6 4 2 2 4 5 7 9 10 10 11 12 13 13 13 12 12 14 17 19 19 19 18 18 18 17 17 15 15
2 4 4 3 3 3 1 5 7 2 4 6 7 5 8 12 14 14 13 10 7 5 2 2 4 5 7 9 9 10 11 12 13 13 13 13 12 12 16 19 19 19 20 20 19 16 15 15 15
1 3 4 5 6 6 2 6 6 2 4 6 7 6 7 13 14 14 13 10 7 5 3 2 3 5 7 8 9 9 10 9 9 12 12 12 11 13 18 19 19 20 20 20 18 13 13 12 13
2 2 2 3 3 6 6 6 8 4 8 9 9 7 9 13 15 14 12 10 7 5 3 1 3 5 7 8 9 9 10 10 11 12 12 11 13 15 18 19 18 19 19 19 17 12 13 13 12
3 4 3 2 4 6 9 7 5 6 6 6 10 12 12 14 15 14 12 10 8 5 3 1 2 4 6 7 7 7 9 11 11 11 12 12 14 16 16 17 17 17 18 18 15 14 14 13 12
5 4 3 2 3 4 6 7 5 9 8 8 9 9 12 16 16 15 12 10 8 6 4 2 2 4 6 6 7 8 9 10 11 10 11 13 14 15 15 15 16 16 16 15 14 15 15 15 14
4 5 6 4 4 4 5 8 4 8 8 9 10 8 11 15 15 14 12 10 8 7 5 3 2 4 5 6 7 8 9 10 10 11 11 13 13 14 15 15 15 15 15 15 14 14 14 14 14
Wind_Direction
87 98 152 213 90 74 82 81 108 120 95 87 75 80 84 63 46 89 69 9 359 355 353 354 5 7 10 12 12 12 12 12 12 12 10 9 8 6 6 5 3 1 359 358 356 354 353 352 351
79 106 52 35 93 102 92 115 119 109 120 117 90 90 92 85 71 84 49 12 5 5 1 1 6 8 10 12 11 11 11 11 11 11 9 8 7 4 4 3 360 359 358 356 355 353 350 349 348
79 62 55 60 74 95 120 132 124 119 129 134 111 78 83 96 91 83 44 17 14 15 9 6 8 9 11 13 12 11 11 11 11 10 9 8 6 3 2 1 358 357 355 354 353 351 348 347 345
94 73 66 67 85 78 125 141 138 137 139 130 134 114 96 74 90 90 61 29 23 20 14 11 11 12 13 14 13 12 11 11 10 8 7 6 4 1 360 359 356 354 353 352 351 348 346 345 343
68 78 81 83 88 114 128 143 154 153 145 140 141 121 111 111 111 95 64 35 25 20 15 14 14 15 15 16 15 12 11 10 8 5 3 2 360 357 355 356 353 351 351 349 348 345 344 342 340
78 82 105 118 122 139 149 164 171 153 139 142 143 126 124 142 131 95 64 42 30 22 17 15 15 15 15 17 15 12 10 8 6 2 360 357 355 353 351 352 349 348 347 345 344 342 341 339 338
84 84 109 130 139 155 155 164 180 158 148 146 145 133 141 162 138 115 79 47 33 24 19 15 12 10 10 13 14 11 10 6 3 360 357 354 351 349 348 348 345 343 342 341 340 338 336 335 333
72 99 113 134 147 149 146 142 145 159 135 132 166 161 165 167 152 141 94 49 34 25 19 13 9 7 3 4 10 7 6 4 360 357 355 352 348 346 343 343 341 338 338 336 335 334 332 331 327
58 98 128 148 160 153 156 151 135 114 134 145 172 165 142 148 157 165 145 58 34 25 18 12 5 3 359 357 359 360 1 1 358 356 354 351 347 343 339 337 336 335 334 332 330 330 328 326 321
32 95 111 110 146 155 162 167 155 159 164 167 163 140 141 151 165 169 132 46 27 19 15 10 2 358 358 357 356 358 359 357 357 353 350 346 342 337 335 332 331 331 330 328 328 327 324 324 321
55 87 111 101 116 144 153 158 166 176 188 194 178 161 159 165 171 174 146 60 31 19 17 10 1 359 1 359 359 358 355 352 349 347 345 341 337 333 332 330 327 327 326 327 325 323 324 321 317
86 81 102 119 127 146 155 157 177 196 222 181 169 162 166 175 181 181 161 88 38 22 16 6 2 3 3 1 358 357 351 346 341 339 340 340 333 329 328 325 323 321 322 322 320 317 317 314 310
88 108 96 111 121 135 149 172 187 201 178 160 159 167 177 182 183 177 161 122 41 22 11 4 1 5 2 360 356 354 348 342 336 334 335 336 330 326 324 320 318 315 316 316 316 313 313 310 308
108 115 118 123 127 149 167 181 204 198 167 164 170 180 187 189 189 184 181 148 46 16 5 0 3 3 359 358 354 349 343 338 333 332 332 332 328 323 320 317 316 313 314 314 310 309 308 306 306
121 117 129 150 156 161 183 213 219 181 174 178 185 190 194 197 197 198 183 158 69 8 357 3 357 356 355 353 350 345 341 336 331 330 329 331 328 324 321 316 315 313 314 312 308 307 305 304 304
142 159 182 171 178 171 216 262 188 173 183 192 196 198 200 204 204 197 181 169 152 340 352 0 353 349 352 350 346 342 337 335 330 330 330 334 332 328 323 318 315 315 314 311 309 307 308 306 305
186 229 250 178 193 189 224 260 167 182 194 203 204 206 207 208 207 198 189 180 181 305 348 352 352 348 347 344 340 336 333 332 332 333 335 336 334 331 326 319 315 317 314 310 308 308 308 306 305
168 265 275 267 183 211 236 252 212 196 206 214 213 214 215 216 212 201 191 185 187 225 343 347 347 347 343 340 337 335 334 334 335 335 336 335 333 332 328 320 320 319 314 311 311 309 306 304 303
310 279 294 314 151 234 256 265 256 211 211 221 222 220 221 222 214 197 192 189 195 217 333 344 344 347 346 343 340 337 334 331 331 332 333 333 333 332 328 324 321 319 314 312 309 308 306 305 305
238 282 296 278 175 259 291 284 270 231 218 223 228 227 226 223 209 198 194 194 203 227 326 336 344 344 348 344 334 328 323 320 322 328 332 333 332 330 326 323 320 317 313 310 309 308 305 303 304
258 284 307 310 302 238 301 289 184 194 227 232 236 237 232 224 213 199 195 196 200 218 326 338 338 338 345 343 335 330 325 324 333 336 333 332 328 325 323 321 319 316 314 310 309 306 301 301 301
298 324 292 292 296 309 339 317 151 185 240 234 232 231 231 223 215 200 193 192 193 187 266 324 330 337 348 347 341 338 333 332 335 333 327 326 325 323 323 322 320 317 314 311 309 305 299 296 293
331 342 272 262 271 281 253 294 296 141 262 240 233 230 227 218 207 193 186 181 172 169 219 316 323 339 351 348 341 335 331 330 329 329 327 327 325 324 325 326 323 320 317 314 311 308 300 293 288
212 203 177 201 242 277 84 301 291 197 238 259 241 235 222 210 196 183 173 166 169 175 209 299 320 346 352 345 338 335 333 332 330 331 329 329 326 326 330 331 328 325 322 318 315 310 303 295 287
242 301 311 306 304 337 97 269 265 280 253 262 267 261 219 198 186 177 174 177 183 191 212 278 326 350 349 340 335 333 331 330 329 330 328 328 326 327 329 331 329 327 325 324 321 315 308 300 293
59 330 352 320 316 316 242 261 274 244 251 257 261 261 212 193 188 184 181 182 185 188 208 270 343 349 341 332 331 327 329 328 324 325 324 323 322 323 324 326 326 327 329 329 328 322 317 306 297
161 128 18 273 282 283 275 272 288 223 252 244 242 234 211 195 190 186 181 182 184 186 199 271 347 339 330 324 324 324 330 328 323 322 321 322 322 322 322 324 327 329 331 333 333 330 326 317 307
3 142 166 236 300 296 291 278 267 280 279 239 235 231 216 197 191 187 183 184 183 182 191 208 334 324 318 316 321 321 325 325 322 320 323 323 323 324 324 326 328 330 331 334 335 335 338 333 327
161 164 178 183 252 272 297 290 211 261 282 272 262 237 212 197 192 188 184 182 179 183 193 204 289 306 309 314 317 321 324 323 321 320 323 325 325 327 328 328 328 330 332 332 332 336 337 338 339
227 207 192 226 221 226 264 273 219 243 260 258 262 250 214 198 191 186 182 180 185 193 196 204 255 289 304 309 313 318 321 322 321 322 324 326 327 329 328 329 328 328 330 327 327 333 337 338 338
Height
1558 1558 1558 1560 1562 1571 1594 1607 1607 1613 1617 1622 1622 1622 1623 1626 1627 1636 1639 1633 1631 1629 1626 1624 1620 1617 1613 1610 1606 1602 1598 1594 1590 1587 1583 1579 1575 1572 1568 1565 1561 1558 1555 1552 1549 1546 1544 1542 1539
1559 1559 1561 1561 1560 1577 1603 1609 1611 1615 1620 1623 1624 1625 1626 1630 1633 1635 1635 1632 1631 1628 1626 1623 1619 1616 1612 1608 1604 1601 1597 1593 1589 1585 1581 1577 1574 1570 1567 1563 1560 1557 1553 1550 1547 1543 1541 1538 1536
1560 1560 1563 1566 1574 1584 1603 1611 1615 1620 1622 1624 1625 1627 1629 1632 1634 1635 1633 1631 1630 1628 1625 1622 1618 1615 1611 1607 1603 1599 1595 1592 1588 1584 1580 1576 1572 1568 1565 1561 1558 1555 1551 1548 1545 1541 1538 1535 1532
1561 1562 1568 1576 1591 1603 1603 1611 1617 1620 1623 1624 1625 1629 1631 1633 1634 1634 1632 1631 1630 1628 1625 1621 1617 1613 1609 1605 1601 1598 1594 1591 1587 1583 1579 1575 1571 1567 1563 1559 1556 1552 1549 1545 1542 1538 1535 1532 1528
1561 1564 1571 1587 1599 1608 1610 1614 1617 1618 1621 1624 1626 1628 1632 1633 1632 1632 1632 1631 1629 1627 1624 1620 1616 1612 1607 1604 1600 1597 1593 1590 1586 1582 1578 1574 1570 1566 1562 1558 1554 1550 1546 1543 1539 1535 1532 1529 1525
1563 1565 1573 1589 1601 1610 1613 1616 1618 1619 1622 1625 1626 1628 1632 1633 1632 1632 1631 1630 1628 1626 1623 1619 1614 1610 1606 1603 1599 1596 1592 1589 1585 1581 1577 1572 1568 1564 1560 1556 1552 1548 1544 1540 1536 1532 1528 1525 1521
1566 1570 1579 1588 1599 1608 1614 1617 1618 1620 1622 1625 1626 1628 1631 1632 1632 1631 1630 1629 1627 1625 1621 1617 1612 1608 1604 1601 1598 1595 1591 1587 1583 1579 1575 1571 1567 1563 1559 1554 1550 1546 1541 1537 1532 1528 1524 1520 1517
1569 1575 1586 1591 1596 1605 1614 1617 1619 1620 1622 1625 1626 1627 1629 1631 1630 1630 1629 1628 1626 1623 1620 1615 1611 1606 1603 1600 1596 1593 1589 1585 1581 1577 1573 1569 1565 1561 1556 1552 1547 1542 1538 1533 1529 1525 1520 1516 1513
1572 1576 1586 1593 1597 1605 1613 1616 1619 1620 1622 1624 1625 1627 1628 1629 1629 1629 1629 1628 1626 1622 1618 1614 1609 1605 1602 1599 1595 1591 1588 1584 1580 1576 1572 1567 1563 1558 1554 1549 1544 1539 1534 1529 1525 1520 1516 1512 1508
1575 1580 1593 1599 1600 1605 1611 1614 1618 1620 1622 1623 1624 1625 1626 1627 1628 1629 1629 1628 1625 1621 1617 1612 1607 1603 1600 1598 1594 1591 1587 1583 1579 1574 1569 1565 1560 1555 1550 1545 1540 1535 1530 1525 1521 1516 1511 1506 1503
1584 1591 1601 1604 1605 1607 1611 1615 1617 1617 1618 1619 1620 1622 1624 1626 1627 1627 1627 1625 1622 1619 1615 1610 1605 1602 1599 1596 1593 1589 1585 1580 1576 1571 1566 1561 1556 1551 1545 1540 1535 1530 1525 1520 1515 1511 1506 1502 1498
1592 1601 1603 1606 1608 1610 1612 1614 1616 1615 1615 1616 1618 1620 1622 1624 1625 1625 1625 1623 1620 1617 1613 1609 1604 1601 1598 1595 1591 1587 1582 1577 1572 1567 1561 1556 1551 1546 1541 1536 1531 1526 1520 1515 1511 1506 1501 1497 1493
1596 1604 1607 1608 1610 1611 1613 1613 1613 1614 1614 1615 1617 1619 1621 1623 1623 1622 1621 1620 1618 1615 1611 1607 1603 1600 1596 1593 1589 1584 1579 1574 1569 1563 1558 1553 1547 1542 1537 1532 1526 1522 1516 1511 1506 1501 1496 1492 1488
1600 1603 1607 1610 1611 1612 1613 1613 1613 1611 1612 1614 1616 1618 1619 1620 1620 1619 1619 1617 1615 1612 1609 1605 1601 1598 1594 1590 1586 1581 1576 1571 1566 1561 1555 1549 1544 1538 1533 1528 1523 1518 1512 1506 1501 1496 1491 1486 1482
1602 1604 1607 1609 1610 1612 1613 1611 1608 1608 1611 1613 1614 1616 1617 1617 1617 1617 1616 1614 1612 1609 1606 1603 1599 1595 1592 1588 1583 1579 1574 1568 1563 1557 1551 1545 1540 1535 1529 1524 1519 1514 1508 1502 1496 1491 1486 1481 1476
1599 1598 1597 1605 1609 1611 1613 1597 1601 1605 1608 1610 1612 1613 1614 1614 1614 1614 1612 1611 1609 1606 1603 1600 1597 1593 1589 1585 1581 1576 1571 1565 1560 1554 1548 1543 1537 1531 1526 1520 1515 1509 1503 1498 1492 1487 1481 1476 1470
1593 1589 1590 1599 1606 1608 1608 1596 1601 1603 1605 1607 1608 1609 1610 1611 1611 1610 1608 1608 1606 1603 1601 1598 1594 1590 1587 1583 1578 1573 1568 1562 1557 1552 1546 1540 1534 1528 1522 1516 1511 1505 1499 1494 1489 1483 1477 1471 1465
1588 1587 1589 1591 1600 1605 1602 1594 1597 1601 1602 1603 1605 1606 1606 1607 1607 1606 1605 1604 1602 1601 1598 1595 1591 1587 1583 1580 1575 1571 1566 1560 1555 1549 1543 1537 1530 1524 1518 1512 1507 1501 1495 1490 1485 1479 1473 1467 1461
1591 1590 1589 1591 1600 1601 1594 1590 1590 1595 1598 1599 1600 1601 1601 1602 1604 1602 1601 1600 1599 1598 1596 1592 1588 1584 1580 1576 1572 1567 1562 1556 1550 1545 1539 1533 1527 1521 1515 1509 1503 1497 1492 1486 1480 1475 1469 1463 1458
1593 1591 1588 1592 1601 1599 1590 1585 1582 1586 1591 1593 1594 1595 1596 1598 1599 1598 1597 1597 1597 1596 1593 1589 1585 1581 1577 1574 1569 1564 1558 1552 1547 1542 1536 1530 1524 1517 1511 1506 1500 1494 1488 1482 1477 1471 1465 1459 1455
1592 1591 1591 1593 1597 1599 1595 1574 1578 1584 1588 1589 1589 1590 1591 1592 1593 1593 1594 1594 1594 1593 1590 1586 1583 1579 1575 1571 1567 1561 1556 1551 1546 1539 1532 1527 1521 1515 1509 1503 1497 1491 1485 1479 1473 1467 1461 1455 1451
1590 1596 1596 1596 1593 1585 1594 1576 1567 1578 1582 1583 1583 1583 1584 1586 1588 1589 1590 1591 1591 1589 1586 1583 1580 1576 1573 1569 1564 1558 1553 1548 1542 1535 1529 1523 1518 1512 1506 1501 1494 1488 1482 1475 1468 1462 1457 1451 1446
1594 1598 1596 1596 1593 1587 1589 1580 1563 1577 1572 1573 1576 1577 1579 1581 1583 1584 1585 1586 1587 1586 1583 1580 1577 1574 1570 1566 1561 1555 1550 1545 1539 1532 1526 1521 1515 1510 1504 1498 1492 1485 1478 1471 1464 1457 1451 1446 1442
1597 1596 1596 1595 1589 1579 1584 1582 1566 1565 1567 1569 1573 1573 1574 1576 1578 1580 1581 1582 1583 1582 1580 1577 1574 1572 1568 1563 1558 1553 1548 1542 1535 1529 1523 1518 1513 1507 1502 1495 1489 1483 1476 1468 1461 1453 1447 1441 1437
1594 1587 1580 1577 1575 1573 1590 1585 1568 1563 1567 1569 1570 1571 1571 1572 1574 1575 1576 1578 1579 1578 1576 1574 1572 1569 1565 1560 1555 1550 1545 1539 1533 1527 1521 1515 1510 1504 1499 1493 1487 1480 1473 1466 1458 1451 1444 1438 1433
1593 1589 1589 1591 1582 1576 1585 1578 1560 1565 1567 1567 1567 1567 1567 1568 1569 1571 1573 1574 1575 1574 1573 1571 1569 1567 1562 1557 1553 1547 1542 1536 1530 1524 1518 1513 1508 1502 1496 1491 1485 1479 1472 1465 1457 1450 1443 1436 1431
1591 1591 1595 1591 1592 1592 1571 1566 1560 1563 1563 1564 1564 1564 1563 1563 1565 1567 1568 1570 1571 1570 1569 1568 1566 1563 1559 1554 1550 1545 1540 1534 1527 1521 1516 1511 1505 1499 1494 1488 1483 1477 1470 1464 1457 1450 1442 1436 1429
1596 1593 1594 1591 1591 1585 1569 1564 1559 1550 1551 1556 1558 1558 1558 1559 1560 1562 1564 1566 1566 1566 1565 1564 1563 1560 1556 1551 1547 1542 1537 1531 1525 1519 1514 1508 1502 1497 1491 1486 1481 1475 1469 1462 1456 1449 1443 1436 1430
1595 1596 1592 1591 1590 1587 1577 1559 1549 1548 1549 1551 1552 1553 1552 1553 1554 1556 1559 1561 1562 1561 1561 1560 1559 1556 1552 1548 1544 1539 1534 1528 1523 1517 1511 1505 1500 1494 1489 1484 1478 1473 1467 1461 1455 1448 1442 1436 1430
1589 1586 1587 1586 1585 1590 1585 1563 1545 1547 1548 1548 1548 1548 1547 1548 1549 1552 1554 1556 1557 1557 1557 1556 1555 1552 1549 1545 1541 1537 1532 1526 1520 1515 1509 1503 1498 1492 1487 1482 1476 1471 1465 1459 1454 1447 1441 1435 1429